Weather History for Pensacola NAS, FL

Change the Weather History Date:

Wednesday, October 17, 2012

  Actual Average Record
Temperature  
Mean Temperature 70 °F -  
Max Temperature 79 °F 76 °F 84 °F (1999)
Min Temperature 62 °F 58 °F 46 °F (2001)
Cooling Degree Days 6    
Growing Degree Days 20 (Base 50)    
Moisture  
Dew Point 60 °F    
Average Humidity 70    
Maximum Humidity 86    
Minimum Humidity 54    
Precipitation  
Precipitation 0.00 in - - ()
Sea Level Pressure  
Sea Level Pressure 29.86 in    
Wind  
Wind Speed 6 mph (SSE)    
Max Wind Speed 14 mph    
Max Gust Speed 16 mph    
Visibility 10 miles    
Events      
Averages and records for this station are not official NWS values.
T = Trace of Precipitation, MM = Missing Value Source: NWS Daily Summary

Daily Weather History Graph

Daily Weather History Graph

Search for Another Location

Airport:

Trip Planner

Search our weather history database for the weather conditions in past years. The results will help you decide how hot, cold, wet, or windy it might be!

Date:

Astronomy

Oct. 17, 2012 Rise Set
Actual Time 6:53 AM CDT 6:15 PM CDT
Civil Twilight 6:28 AM CDT 6:39 PM CDT
Nautical Twilight 6:00 AM CDT 7:07 PM CDT
Astronomical Twilight 5:33 AM CDT 7:35 PM CDT
Moon 9:14 AM CDT (10/17) 8:04 PM CDT (10/17)
Length of Visible Light 12h 10m
Length of Day
11h 22m
Waxing Crescent, 7% of the Moon is Illuminated
Oct 17
Waxing Crescent
Oct 21
First Quarter
Oct 29
Full
Nov 6
Last Quarter
Nov 13
New

Hourly Weather History & Observations

Time (CDT) Temp. Dew Point Humidity Pressure Visibility Wind Dir Wind Speed Gust Speed Precip Events Conditions
12:56 AM 63.0 °F 55.9 °F 78% 29.89 in 10.0 mi NNW 4.6 mph - N/A   Clear
1:56 AM 62.1 °F 57.9 °F 86% 29.87 in 10.0 mi Calm Calm - N/A   Partly Cloudy
2:56 AM 66.9 °F 54.0 °F 63% 29.87 in 10.0 mi North 4.6 mph - N/A   Scattered Clouds
3:56 AM 63.0 °F 57.0 °F 81% 29.87 in 10.0 mi Calm Calm - N/A   Clear
4:56 AM 64.0 °F 55.9 °F 75% 29.86 in 10.0 mi NNE 3.5 mph - N/A   Clear
5:56 AM 63.0 °F 57.0 °F 81% 29.88 in 10.0 mi North 4.6 mph - N/A   Mostly Cloudy
6:56 AM 62.1 °F 54.0 °F 75% 29.89 in 10.0 mi NNE 3.5 mph - N/A   Scattered Clouds
7:56 AM 66.0 °F 55.9 °F 70% 29.90 in 10.0 mi NE 4.6 mph - N/A   Partly Cloudy
8:56 AM 72.0 °F 59.0 °F 64% 29.91 in 10.0 mi ENE 8.1 mph - N/A   Partly Cloudy
9:56 AM 75.0 °F 60.1 °F 60% 29.91 in 10.0 mi ESE 9.2 mph - N/A   Partly Cloudy
10:56 AM 75.9 °F 62.1 °F 62% 29.91 in 10.0 mi ESE 8.1 mph - N/A   Scattered Clouds
11:56 AM 77.0 °F 61.0 °F 58% 29.90 in 10.0 mi ESE 8.1 mph 16.1 mph N/A   Scattered Clouds
12:56 PM 78.1 °F 60.1 °F 54% 29.87 in 10.0 mi South 10.4 mph - N/A   Scattered Clouds
1:56 PM 79.0 °F 64.9 °F 62% 29.83 in 10.0 mi South 13.8 mph - N/A   Mostly Cloudy
2:56 PM 78.1 °F 63.0 °F 60% 29.82 in 10.0 mi South 12.7 mph - N/A   Mostly Cloudy
3:56 PM 77.0 °F 63.0 °F 62% 29.81 in 10.0 mi South 10.4 mph - N/A   Scattered Clouds
4:56 PM 75.9 °F 62.1 °F 62% 29.81 in 10.0 mi SSW 8.1 mph - N/A   Scattered Clouds
5:56 PM 73.9 °F 63.0 °F 68% 29.81 in 10.0 mi South 6.9 mph - N/A   Scattered Clouds
6:56 PM 71.1 °F 62.1 °F 73% 29.82 in 10.0 mi South 5.8 mph - N/A   Partly Cloudy
7:56 PM 70.0 °F 62.1 °F 76% 29.83 in 10.0 mi South 5.8 mph - N/A   Partly Cloudy
8:56 PM 71.1 °F 64.0 °F 78% 29.85 in 10.0 mi South 8.1 mph - N/A   Partly Cloudy
9:56 PM 72.0 °F 64.0 °F 76% 29.83 in 10.0 mi South 10.4 mph - N/A   Partly Cloudy
10:56 PM 72.0 °F 64.0 °F 76% 29.82 in 10.0 mi South 11.5 mph - N/A   Scattered Clouds
11:56 PM 72.0 °F 64.0 °F 76% 29.81 in 10.0 mi South 12.7 mph - N/A   Clear